[[{"header":{"parameterUnit":"m.s-1","parameterCategory":1,"la1":30.2991,"la2":30.254,"lo1":-89.0895,"lo2":-89.0444,"dy":0.0017,"dx":0.0017,"nx":28,"ny":28,"refTime":"2023-10-22T21:00:00:Z","depth":0,"parameterNumber":2,"parameterNumberName":"U-component_of_WINDS"},"data":[0,0,0,0,0,0,0,0,0,0,0,0,0,0,0,0,0,0,0,0,0,0,0,0,0,0,0,0,0,0,0,0,0,0,0,0,0,0,0,0,0,0,0,0,0,0,0,0,0,0,0,0,0,0,0,0,0,0,0.1936,0.1937,0,0.2064,0.2065,0.2066,0.211,0.211,0.2109,0.2109,0.2242,0.2246,0.225,0,0,0,0,0,0,0,0,0,0,0,0,0,0.1731,0.1734,0.1936,0.1937,0.1939,0.2063,0.2065,0.2067,0.2111,0.211,0.2109,0.2109,0.2241,0.2246,0.225,0,0,0,0,0,0,0,0,0,0,0,0,0,0.1835,0.1735,0.1935,0.1976,0.198,0.2063,0.2065,0.2067,0.2111,0.211,0.2109,0.2108,0.2239,0.2245,0.2251,0.2304,0,0,0.227,0.2272,0,0,0,0,0,0,0,0,0.1829,0.1843,0.1968,0.1973,0.1979,0.207,0.2042,0.2147,0.2111,0.2061,0.2109,0.2108,0.2186,0.2196,0.2222,0.231,0.2316,0.227,0.2274,0.2276,0.2278,0,0,0,0,0,0,0,0.1822,0.1838,0.1986,0.197,0.1976,0.1988,0.2002,0.2062,0.2126,0.2066,0.2069,0.2083,0.2189,0.2216,0.2225,0.2318,0.227,0.2275,0.2279,0.2281,0.2454,0.2455,0,0,0,0,0,0,0.1808,0.1831,0.1982,0.199,0.19,0.1992,0.2008,0.2042,0.2126,0.2138,0.2084,0.2085,0.2206,0.2218,0.223,0.2297,0.2276,0.2282,0.2285,0.2454,0.2455,0.2456,0,0,0,0,0,0,0.1803,0.1821,0.1977,0.1912,0.1932,0.1996,0.2034,0.2045,0.2072,0.214,0.2152,0.21,0.2206,0.2222,0.2285,0.2302,0.2285,0.229,0.2452,0.2454,0.2455,0.2431,0,0,0,0,0,0,0.1797,0.1819,0.1839,0.1912,0.1936,0.2029,0.2035,0.2048,0.2082,0.2085,0.2158,0.2169,0.2207,0.2275,0.2291,0.231,0.2295,0.2451,0.2453,0.2455,0.243,0.2431,0.2432,0,0,0,0,0,0.179,0.1828,0.184,0.1858,0.1962,0.203,0.2044,0.2085,0.2083,0.2104,0.2148,0.2167,0.2298,0.2282,0.2299,0.2321,0.245,0.2452,0.2455,0.243,0.2431,0.2432,0,0,0,0,0,0,0.1757,0.1838,0.1853,0.1915,0.1965,0.2037,0.2065,0.2085,0.2137,0.2137,0.2187,0.2203,0.2262,0.2298,0.2279,0.2375,0.2375,0.2381,0.235,0.2352,0.2352,0.2343,0.23,0,0,0,0,0,0.1756,0.1804,0.1873,0.1921,0.1946,0.2001,0.2032,0.2059,0.2113,0.2135,0.2183,0.2235,0.2288,0.2322,0.2374,0.2435,0.2452,0.2459,0.2459,0.246,0.2464,0.2499,0.2503,0.2463,0.2463,0.2463,0,0,0.1757,0.1807,0.1834,0.1916,0.1958,0.2006,0.2018,0.2069,0.2106,0.2143,0.2205,0.2242,0.2304,0.2366,0.2395,0.2397,0.2479,0.2463,0.2462,0.2467,0.2501,0.2505,0.2508,0.2464,0.2464,0.2464,0,0,0.1783,0.1825,0.187,0.1912,0.1975,0.2011,0.2022,0.2091,0.2116,0.2179,0.2208,0.2252,0.2342,0.2385,0.2418,0.2458,0.2478,0.2474,0.2479,0.2512,0.2515,0.2518,0.2532,0.2536,0.2478,0.2478,0.2478,0,0.1775,0.1849,0.1891,0.194,0.1975,0.201,0.2056,0.2094,0.2171,0.2195,0.2195,0.2308,0.2352,0.2425,0.2434,0.246,0.2474,0.2466,0.2511,0.2514,0.2518,0.2532,0.2537,0.2477,0.2478,0.2478,0.2478,0,0.1837,0.1887,0.1916,0.1989,0.2027,0.2074,0.2124,0.2158,0.2181,0.2217,0.2281,0.2335,0.2398,0.2417,0.2442,0.2493,0.2492,0.2501,0.2501,0.252,0.2534,0.2539,0.2476,0.2476,0.2477,0.2477,0,0,0.1846,0.194,0.195,0.1983,0.2055,0.2095,0.2143,0.2205,0.2233,0.2284,0.2327,0.2401,0.241,0.2447,0.2477,0.2505,0.2534,0.2511,0.2513,0.2513,0.2593,0.2586,0.2591,0.2547,0.2548,0.2549,0.2588,0,0.1881,0.1969,0.2008,0.2078,0.2125,0.2158,0.2201,0.2249,0.2284,0.233,0.2369,0.2421,0.2428,0.2451,0.2481,0.2524,0.255,0.2521,0.2587,0.2589,0.257,0.2599,0.2592,0.2626,0.2594,0.2595,0.2595,0,0.1933,0.1984,0.2059,0.2124,0.2145,0.2183,0.2241,0.2284,0.234,0.2363,0.2405,0.2432,0.2485,0.2481,0.2555,0.2534,0.2563,0.2588,0.259,0.2598,0.2593,0.2607,0.2638,0.2642,0.2604,0.2604,0.2603,0,0.1932,0.2019,0.2075,0.2102,0.218,0.2205,0.2239,0.2294,0.2328,0.2379,0.2402,0.2459,0.249,0.2534,0.2577,0.257,0.2646,0.2646,0.2667,0.2665,0.2681,0.268,0.2717,0.27,0.27,0.27,0.2699,0,0.1967,0.2011,0.2075,0.211,0.2161,0.2205,0.2254,0.229,0.2338,0.238,0.2413,0.2452,0.2505,0.2551,0.2585,0.264,0.2654,0.2674,0.2683,0.2672,0.2669,0.2691,0.269,0.2701,0.2701,0.27,0.27,0,0.1974,0.2019,0.2082,0.215,0.2168,0.2202,0.226,0.2295,0.2331,0.2384,0.2399,0.2456,0.2511,0.2558,0.2631,0.2653,0.2711,0.2721,0.2691,0.2696,0.2714,0.2712,0.2767,0.2776,0.2753,0.2753,0.2753,0,0.1994,0.2028,0.2099,0.213,0.2162,0.2211,0.2245,0.229,0.2325,0.239,0.2417,0.2474,0.2523,0.261,0.2658,0.2714,0.2725,0.2741,0.2734,0.2721,0.2726,0.2723,0.2726,0.2741,0.2741,0.2741,0.2741,0,0.2023,0.2043,0.2091,0.2147,0.2187,0.2234,0.2281,0.2304,0.2357,0.2395,0.2451,0.2488,0.2562,0.2619,0.268,0.2715,0.2737,0.2743,0.2751,0.274,0.2721,0.2731,0.2693,0.2742,0.2742,0.2742,0.2742,0.2742,0.2037,0.2069,0.2124,0.2176,0.2216,0.2259,0.2295,0.2335,0.2383,0.2446,0.247,0.2527,0.2582,0.2666,0.2701,0.2747,0.275,0.2761,0.2764,0.2766,0.2764,0.2714,0.2758,0.2758,0.2758,0.2758,0.2758,0,0.2068,0.2104,0.2152,0.2217,0.2258,0.2274,0.2327,0.236,0.2411,0.2459,0.2506,0.257,0.2625,0.2677,0.2734,0.2761,0.2773,0.2775,0.2773,0.2781,0.2758,0.2746,0.2764,0.2764,0.2764,0.2764,0.2764,0.2764,0.2089,0.2144,0.217,0.2246,0.2282,0.2338,0.2367,0.2407,0.2446,0.2516,0.2561,0.2595,0.2645,0.2706,0.2757,0.2771,0.279,0.2789,0.2806,0.2784,0.2783,0.2782,0.277,0.2793,0.2793,0.2825,0.2825,0.2825]},{"header":{"parameterUnit":"m.s-1","parameterCategory":1,"la1":30.2991,"la2":30.254,"lo1":-89.0895,"lo2":-89.0444,"dy":0.0017,"dx":0.0017,"nx":28,"ny":28,"refTime":"2023-10-22T21:00:00:Z","depth":0,"parameterNumber":3,"parameterNumberName":"V-component_of_WINDS"},"data":[0,0,0,0,0,0,0,0,0,0,0,0,0,0,0,0,0,0,0,0,0,0,0,0,0,0,0,0,0,0,0,0,0,0,0,0,0,0,0,0,0,0,0,0,0,0,0,0,0,0,0,0,0,0,0,0,0,0,1.2267,1.2267,0,1.2256,1.2256,1.2256,1.228,1.2281,1.2281,1.2282,1.2268,1.2267,1.2265,0,0,0,0,0,0,0,0,0,0,0,0,0,1.2305,1.2304,1.2267,1.2267,1.2267,1.2256,1.2256,1.2256,1.228,1.2281,1.2282,1.2283,1.2268,1.2267,1.2265,0,0,0,0,0,0,0,0,0,0,0,0,0,1.229,1.2304,1.2267,1.2277,1.2278,1.2256,1.2256,1.2256,1.228,1.2281,1.2282,1.2283,1.2268,1.2267,1.2265,1.2231,0,0,1.226,1.2259,0,0,0,0,0,0,0,0,1.2291,1.2289,1.2276,1.2277,1.2277,1.2271,1.2264,1.2247,1.2279,1.2279,1.2282,1.2284,1.2267,1.2266,1.2261,1.2231,1.223,1.226,1.2259,1.2258,1.2258,0,0,0,0,0,0,0,1.2292,1.229,1.2262,1.2276,1.2277,1.2281,1.2281,1.2261,1.2267,1.2279,1.2281,1.2279,1.2268,1.2263,1.2261,1.223,1.226,1.2258,1.2257,1.2257,1.217,1.2168,0,0,0,0,0,0,1.2292,1.229,1.2263,1.2262,1.2287,1.228,1.2279,1.2272,1.2267,1.2267,1.2278,1.2281,1.2265,1.2263,1.2261,1.2219,1.2258,1.2257,1.2256,1.2171,1.2169,1.2168,0,0,0,0,0,0,1.2293,1.229,1.2263,1.2277,1.2274,1.2278,1.2269,1.2271,1.2265,1.2266,1.2267,1.2272,1.2266,1.2263,1.2238,1.2219,1.2256,1.2254,1.2172,1.217,1.2169,1.2137,0,0,0,0,0,0,1.2294,1.229,1.2278,1.2276,1.2273,1.2242,1.2268,1.227,1.2263,1.2266,1.2261,1.2261,1.2267,1.2241,1.2237,1.2217,1.2253,1.2174,1.2172,1.2169,1.214,1.2134,1.2129,0,0,0,0,0,1.2295,1.2269,1.2277,1.2273,1.2258,1.2241,1.2239,1.2247,1.2261,1.2248,1.2249,1.2261,1.2223,1.2238,1.2234,1.2214,1.2175,1.2172,1.2169,1.2142,1.2135,1.213,0,0,0,0,0,0,1.2266,1.2269,1.2278,1.225,1.2245,1.2245,1.2229,1.224,1.2229,1.2232,1.2242,1.224,1.2213,1.2212,1.2229,1.218,1.2201,1.2197,1.2182,1.2175,1.217,1.217,1.2252,0,0,0,0,0,1.2257,1.2244,1.2246,1.2222,1.2219,1.2224,1.2217,1.2224,1.2219,1.2216,1.2215,1.2209,1.2195,1.2186,1.2173,1.2141,1.2139,1.2125,1.212,1.2115,1.2111,1.2092,1.2085,1.2158,1.2158,1.2158,0,0,1.2236,1.2236,1.2227,1.2216,1.2213,1.2197,1.2222,1.2205,1.2194,1.2213,1.219,1.2189,1.2182,1.2153,1.214,1.2151,1.2091,1.2112,1.2108,1.2106,1.2088,1.2081,1.2075,1.2156,1.2157,1.2157,0,0,1.2192,1.2191,1.217,1.2167,1.2162,1.2166,1.2161,1.216,1.216,1.2137,1.2151,1.2137,1.2114,1.2108,1.2102,1.2056,1.2066,1.2052,1.2024,1.2005,1.1999,1.1994,1.1975,1.1969,1.2048,1.2048,1.2048,0,1.2166,1.2145,1.2157,1.2139,1.2133,1.2152,1.2129,1.2126,1.2117,1.2111,1.2124,1.2095,1.2092,1.2061,1.2049,1.2045,1.2038,1.2051,1.2,1.1994,1.199,1.1972,1.1965,1.2046,1.2046,1.2046,1.2047,0,1.2114,1.2099,1.2082,1.2074,1.2067,1.2046,1.2054,1.2045,1.2052,1.2055,1.203,1.2028,1.2015,1.2008,1.2016,1.1978,1.1984,1.1998,1.2019,1.1981,1.1964,1.1957,1.2043,1.2044,1.2045,1.2045,0,0,1.2047,1.2048,1.2041,1.2037,1.2034,1.2022,1.2003,1.1991,1.1982,1.1976,1.1958,1.1939,1.1952,1.1945,1.1952,1.1936,1.1897,1.1951,1.1951,1.1939,1.1853,1.184,1.1832,1.1905,1.1903,1.1903,1.1852,0,1.2001,1.1969,1.1979,1.1945,1.1931,1.1949,1.1932,1.1928,1.193,1.1917,1.1919,1.1904,1.1923,1.1919,1.1904,1.1905,1.1879,1.1909,1.1886,1.1885,1.1884,1.1824,1.1811,1.1764,1.1846,1.1845,1.1844,0,1.1942,1.1935,1.19,1.1899,1.1893,1.1878,1.1867,1.1856,1.1851,1.1854,1.1847,1.1857,1.1836,1.186,1.183,1.185,1.1842,1.1841,1.1839,1.1835,1.186,1.1815,1.1749,1.1741,1.1835,1.1835,1.1836,0,1.1894,1.1876,1.1852,1.1849,1.1848,1.1836,1.1835,1.1832,1.1824,1.1815,1.181,1.1798,1.1791,1.1781,1.1788,1.1805,1.1757,1.1781,1.1756,1.1756,1.1743,1.1743,1.1671,1.1742,1.1742,1.1742,1.1743,0,1.184,1.1817,1.1831,1.1816,1.179,1.1803,1.1777,1.1778,1.1775,1.176,1.1776,1.176,1.1771,1.1757,1.1762,1.1736,1.1733,1.1733,1.1734,1.173,1.1729,1.1722,1.1724,1.1741,1.1741,1.1741,1.1742,0,1.1781,1.1789,1.1764,1.1766,1.1766,1.1747,1.1748,1.1734,1.1738,1.1718,1.1714,1.172,1.1703,1.171,1.1692,1.1696,1.1661,1.1668,1.1663,1.1664,1.1637,1.1639,1.1556,1.1545,1.1626,1.1625,1.1624,0,1.1744,1.1727,1.1727,1.1719,1.1717,1.1703,1.1695,1.1707,1.1698,1.1692,1.1678,1.1664,1.1652,1.1625,1.1627,1.1613,1.1618,1.159,1.1616,1.1612,1.1614,1.1614,1.1611,1.1584,1.1583,1.1582,1.1581,0,1.1676,1.1682,1.1671,1.1661,1.1652,1.1645,1.1639,1.1631,1.1642,1.1631,1.1616,1.1607,1.159,1.1574,1.1562,1.156,1.1571,1.1574,1.1567,1.1561,1.1557,1.1556,1.1646,1.1575,1.1576,1.1576,1.1576,1.1577,1.1625,1.1611,1.1609,1.1596,1.1593,1.1587,1.1573,1.1576,1.1564,1.1551,1.1559,1.154,1.1536,1.1521,1.1517,1.1501,1.1512,1.1502,1.1499,1.1496,1.1491,1.1563,1.15,1.15,1.15,1.15,1.15,0,1.1556,1.1557,1.1545,1.1536,1.1526,1.1541,1.1535,1.1525,1.1508,1.1504,1.1493,1.1474,1.1459,1.146,1.1447,1.1434,1.1438,1.1429,1.1429,1.1427,1.1484,1.149,1.1425,1.1425,1.1426,1.1426,1.1426,1.1426,1.1519,1.1495,1.15,1.1474,1.1474,1.1456,1.1451,1.1445,1.1442,1.1421,1.1409,1.1411,1.1408,1.1394,1.1381,1.1381,1.1374,1.1362,1.1364,1.1416,1.1424,1.1431,1.1436,1.1361,1.1361,1.1309,1.1308,1.1308]}]]